This is the latest recevied weather packets stored in our database for station/object KG7DQI-13. If no packets are shown the sender has not sent any weather packets the latest 10 day(s).
| Time | Temp. | Humidity | Pressure | Rain* | Wind** | Luminosity | Snow |
|---|---|---|---|---|---|---|---|
| 1788625194 | 9.44° C | 90% | 916.5 hPa | 0 mm | - | 139 W/m² | - |
| 1788621597 | 6.67° C | 96% | 916.4 hPa | 0 mm | - | 102 W/m² | - |
| 1788618926 | 4.44° C | 95% | 916.2 hPa | 0 mm | - | 74 W/m² | - |
| 1788618066 | 3.89° C | 95% | 916.1 hPa | 0 mm | - | 63 W/m² | - |
| 1788617180 | 4.44° C | 95% | 916 hPa | 0 mm | - | 16 W/m² | - |
| 1788616248 | 4.44° C | 96% | 915.9 hPa | 0 mm | - | 5 W/m² | - |
| 1788615334 | 3.89° C | 95% | 916 hPa | 0 mm | - | 0 W/m² | - |
| 1788614420 | 3.89° C | 95% | 915.8 hPa | 0 mm | - | 0 W/m² | - |
| 1788613558 | 3.89° C | 95% | 915.7 hPa | 0 mm | - | 0 W/m² | - |
| 1788611777 | 4.44° C | 95% | 915.8 hPa | 0 mm | - | 0 W/m² | - |
| 1788610866 | 4.44° C | 95% | 915.7 hPa | 0 mm | - | 0 W/m² | - |
| 1788610006 | 4.44° C | 95% | 915.7 hPa | 0 mm | - | 0 W/m² | - |
| 1788609133 | 4.44° C | 95% | 915.5 hPa | 0 mm | - | 0 W/m² | - |
| 1788608184 | 4.44° C | 95% | 915.7 hPa | 0 mm | - | 0 W/m² | - |
| 1788607249 | 4.44° C | 95% | 915.7 hPa | 0 mm | - | 0 W/m² | - |
| 1788606324 | 5° C | 95% | 915.6 hPa | 0 mm | - | 0 W/m² | - |
| 1788603614 | 4.44° C | 96% | 915.7 hPa | 0 mm | - | 0 W/m² | - |
| 1788602690 | 3.89° C | 95% | 915.7 hPa | 0 mm | - | 0 W/m² | - |
| 1788601816 | 3.89° C | 94% | 915.6 hPa | 0 mm | - | 0 W/m² | - |
| 1788600925 | 3.89° C | 95% | 915.7 hPa | 0 mm | - | 0 W/m² | - |
| 1788600037 | 3.89° C | 94% | 915.6 hPa | 0 mm | - | 0 W/m² | - |
| 1788599155 | 3.89° C | 95% | 915.8 hPa | 0 mm | - | 0 W/m² | - |
| 1788598250 | 2.78° C | 94% | 915.7 hPa | 0 mm | - | 0 W/m² | - |
| 1788596488 | 3.33° C | 93% | 915.5 hPa | 0 mm | - | 0 W/m² | - |
| 1788593750 | 3.89° C | 92% | 915.1 hPa | 0 mm | - | 0 W/m² | - |
* Rain latest hour (hover to see other rain measurements)
** Current wind speed in m/s (hover to see current wind gust speed)